Location: Chateh
(58.6667°N, 118.6000°W)
Time: 11:01:45
(UTC+00:00)

PCSat - Pass Details

Date: 12 December 2023
Orbit: 784 x 791 km, 67.0° (Epoch: 01 March)

Event Time Altitude Azimuth Distance (km) Brightness Sun altitude
Exits shadow 15:38:36 - 302° (WNW) 2,547 11.5 -6.5°
Reaches altitude 10° 15:39:07 10° 305° (NW) 2,363 11.3 -6.4°
Maximum altitude 15:44:08 37° 12° (NNE) 1,223 10.4 -5.9°
Drops below altitude 10° 15:49:10 10° 80° (E) 2,364 12.7 -5.4°
Sets 15:51:46 0° 88° (E) 3,293 13.7 -5.1°
